Flag for Canada Weather past 2 weeks in Calgary, Alberta, Canada

Now
37 °F

Mostly cloudy.


Feels Like: 28 °F
Forecast: 35 / 51 °F
Wind: 17 mph from North

Location: Calgary International

Current Time: May 6, 2015 at 1:26:48 AM

Latest Report: May 6, 2015 at 1:00 AM


Visibility: 15 mi

Pressure: 29.93 "Hg

Humidity: 87%

Dew point: 34 °F

Location of CalgaryLocation

Historic Weather in Calgary — Graph

°F

Calgary temperature yesterday

Maximum temperature yesterday: 66 °F (at 3:00 PM)
Minimum temperature yesterday: 37 °F (at 11:46 PM)
Average temperature yesterday: 51 °F

Past Weeks' High & Low Weather Summary

 TemperatureHumidityPressure
High82 °F (Apr 28, 3:00 PM)93% (Apr 25, 2:00 AM)30.26 "Hg (Apr 25, 2:00 AM)
Low23 °F (Apr 26, 6:00 AM)9% (Apr 22, 6:00 PM)29.57 "Hg (Apr 22, 5:00 PM)
Average48 °F48%29.91 "Hg
* Reported Midnight between Apr 20 and Apr 21 — Midnight between May 5 and May 6, Calgary, Weather by CustomWeather, © 2015

Note: Actual official high and low records may vary slightly from our data, if they occured in-between our weather recording intervals... More about our weather records

Advertising

Calgary weather history for previous 24 hours

 ConditionsComfort  
Time TempWeatherWind HumidityBarometerVisibility
12:00 AM
Wed, May 6
39 °FSprinkles. Mostly cloudy.21 mph87%29.91 "Hg15 mi
11:46 PM
Tue, May 5
37 °FSprinkles. Mostly cloudy.22 mph87%29.92 "Hg10 mi
11:00 PM39 °FSnow flurries. Mostly cloudy.23 mph87%29.90 "Hg7 mi
10:00 PM43 °FPartly sunny.24 mph76%29.87 "Hg15 mi
9:00 PM48 °FScattered showers. Broken clouds.23 mph62%29.80 "Hg10 mi
8:00 PM50 °FScattered clouds.24 mph54%29.76 "Hg10 mi
7:00 PM57 °FScattered clouds.24 mph41%29.71 "Hg40 mi
6:00 PM63 °FScattered clouds.16 mph32%29.66 "Hg30 mi
5:00 PM66 °FScattered clouds.14 mph28%29.65 "Hg40 mi
4:00 PM66 °FMore clouds than sun.16 mph28%29.67 "Hg40 mi
3:00 PM66 °FPartly sunny.17 mph30%29.67 "Hg40 mi
2:00 PM64 °FPartly sunny.14 mph30%29.68 "Hg40 mi
1:00 PM59 °FBroken clouds.13 mph36%29.70 "Hg40 mi
12:00 PM61 °FBroken clouds.7 mph29%29.70 "Hg40 mi
11:00 AM59 °FPartly sunny.12 mph36%29.71 "Hg40 mi
10:00 AM54 °FPartly sunny.8 mph44%29.72 "Hg40 mi
9:00 AM52 °FPartly sunny.10 mph41%29.71 "Hg40 mi
8:00 AM46 °FPartly sunny.8 mph46%29.70 "Hg40 mi
7:00 AM39 °FPassing clouds.No wind56%29.69 "Hg40 mi
6:00 AM45 °FPassing clouds.2 mph39%29.67 "Hg15 mi
5:00 AM45 °FPassing clouds.7 mph42%29.68 "Hg15 mi
4:00 AM41 °FPassing clouds.6 mph57%29.69 "Hg15 mi
3:00 AM43 °FPassing clouds.6 mph49%29.70 "Hg15 mi
2:00 AM43 °FClear.No wind49%29.71 "Hg15 mi
1:00 AM45 °FClear.3 mph46%29.72 "Hg15 mi
Weather by CustomWeather, © 2015

See weather overviewHow to use our weather pages